STARLINK-34223, 64336

Orbit data source: Space-Track

STARLINK-34223, 64336 is a payload satellite owned by SpaceX/Seattle (US) in LEO that was launched on Tue, 10 Jun 2025 UTC via an FALCON 9 launch vehicle from the Air Force Eastern Test Range (AFETR). Payload-class satellites include a variety of spacecraft equipped with specific instruments for various scientific and technological missions. These include communications satellites like Starlink; space stations such as the ISS; scientific satellites like the Hubble; Earth observation satellites from companies like Planet Labs, Umbra, and HawkEye 360; GPS; miniature CubeSats for education and research; and military/defense satellites.

Loading next visibility...
Identifier
64336, 2025-124V
Orbit
LEO
Country
Flag of USUS
Related business
Manufacturer
SpaceX/Seattle
Mission
Operational Commercial Communications
Bus & Motor
STARLINK V2MO, Unknown motor
Mass
575 kg wet, ~530 kg dry
Launch date (UTC)
2025-06-10 (1 year ago)
Launch vehicle
FALCON 9
Launch site
Air Force Eastern Test Range (AFETR)
Object type
Payload
Rocket body
Debris
Shape & HBR
Box + 2 Pan, 17.7 m
Radar Cross Section
36.964 m², Large (>1 m²)

Expand to show TLE details & history
Last TLE update: 1 day ago

TLE from 1 day ago
0 STARLINK-34223
1 64336U 25124V   26170.66668981  .00058507  00000-0  21209-2 0  9993
2 64336  43.0001 262.0243 0001489 286.8574 304.6943 15.27548075  5821
Epoch: 2026-06-19T16:00Z
TLE epoch observation values (Epoch: 2026-06-19T16:00:01.999Z)
Latitude
-32.45332°
Longitude
-23.17477°
Altitude
491.543 km
Speed
7.62 km/s
True Right ascension
08h 18m 54s
True Declination
-32° 17' 30"
Sunlit
Object was in daylight at epoch
Visualization orbit readout
Latitude
Unknown
Longitude
Unknown
Altitude
Unknown
Speed
Unknown
Apparent Right ascension
Unknown
Apparent Declination
Unknown
Sunlit
N/A
Visualization observer readout
Local Sidereal Time
10:18:28
Azimuth
Unknown
Elevation
Unknown
Doppler factor
Unknown
Orbital elements
Apogee altitude
486.112 km
Perigee altitude
484.068 km
Semi-major axis
6,863.227 km
Eccentricity
0.00015
Inclination
43.0001°
RAAN
262.0243°
Arg. of periapsis
286.8574°
True anomaly
304.68027°
Mean anomaly
304.6943°
Eccentric anomaly
304.68728°
Mean motion
3.81725 °/min
Orbital period
94.31 mins
BSTAR
0.0021209
Loading maneuver chart data...
Computing Atmospheric mass density...
Loading historical data...
Loading historical data...
Loading historical data...
Loading historical data...
Loading historical data...
Loading historical data...
Loading historical data...

Documentation

Showing up to 5 results
|